Погода в Каржиманте

Россия / Пензенская область     52°46′48″N   45°31′56″E
темп.,
°C
ветер,
м/с
пор.,
м/с
влажн.,
%
обл.,
%
осадки,
мм/ч
давл.,
гПа
погр.,
м
9 мая, вс
вс900:00+11юв4971100 0.0 1011171
03:00+12ююв51567100 0.1 1010396
06:00+13ююв61473100 0.2 1010418
09:00+14ююв51179100 0.9 1009502
12:00+17ю6116869 0.1 10091005
15:00+19ю61056100 0.1 10091790
18:00+11зсз5682100 0.1 1012385
21:00+8сз4784100 0.1 1015351
10 мая, пн
пн1000:00+7ссз5887100 0.1 1015303
03:00+7с51091100 0.2 1016325
06:00+8ссв51295100 2.2 1017340
09:00+10ссв71391100 2.6 1017343
12:00+15ссв81174100 0.0 1018728
15:00+17ссв81172100 0.0 1018868
18:00+13ссв91684100 0.2 1019549
21:00+12св91886100 0.2 1021483
11 мая, вт
вт1100:00+12св81785100 0.1 1021454
03:00+11св71688100 0.1 1021422
06:00+12всв61586100 0.0 1022481
09:00+18всв7106990 0.0 1023686
12:00+21в810549 0.1 10231775
15:00+20всв7125797 0.6 1023760
18:00+17ююв5979100 1.1 1024335
21:00+13ссз2395100 1.6 102599
12 мая, ср
ср1200:00+13с2395100 0.3 102586
03:00+13всв31091100 0.3 1023264
06:00+15в6167469 0.0 1023519
09:00+17вюв6146880 0.0 1024594
12:00+19вюв7116072 0.0 1025768
15:00+18вюв61262100 0.0 1025474
18:00+17вюв41368100 0.0 1024407
21:00+16в5136555 0.0 1024375
13 мая, чт
чт1300:00+14в4136498 0.0 1023293
03:00+13в4146563 0.0 1023310
06:00+14юв61364100 0.0 1023558
09:00+18вюв7146184 0.1 1022735
12:00+17юв7146096 0.0 1023599
15:00+22юв7125632 0.0 10221178
18:00+21юв510663 0.0 1022424
21:00+16вюв5147416 0.0 1022315